GJ7DNI-13 Weather Reports


time (UTC)temp
F
wind
direction
speed
knots
gust
knots
rain 1hr
in
rain 24hr
in
rain mn
in
humidity
%
barometer
mb
20260507173451 62 35 4.3 8.7 0.00 0.00 0.00 56 1011.5
20260507172951 62 56 4.3 6.1 0.00 0.00 0.00 56 1011.6
20260507172451 62 37 4.3 11.3 0.00 0.00 0.00 55 1011.7
20260507171951 63 65 3.5 10.4 0.00 0.00 0.00 55 1011.7
20260507171453 63 44 3.5 10.4 0.00 0.00 0.00 51 1011.7
20260507170951 64 56 2.6 7.8 0.00 0.00 0.00 50 1011.7
20260507170451 64 85 1.7 6.1 0.00 0.00 0.00 49 1011.7
20260507165951 64 75 2.6 7.0 0.00 0.00 0.00 49 1011.7
20260507165451 64 122 3.5 7.0 0.00 0.00 0.00 49 1011.8
20260507164951 64 121 3.5 7.0 0.00 0.00 0.00 48 1011.8
20260507164451 64 118 3.5 7.0 0.00 0.00 0.00 48 1011.7
20260507163951 64 103 2.6 6.1 0.00 0.00 0.00 47 1011.7
20260507163451 65 138 2.6 7.0 0.00 0.00 0.00 48 1011.8
20260507162951 65 78 2.6 7.0 0.00 0.00 0.00 48 1011.8
20260507162451 65 105 3.5 7.0 0.00 0.00 0.00 48 1011.9
20260507161951 64 117 3.5 6.1 0.00 0.00 0.00 48 1011.9
20260507161451 64 75 3.5 7.8 0.00 0.00 0.00 47 1011.9
20260507160951 65 123 2.6 7.0 0.00 0.00 0.00 47 1012.0
20260507160451 64 122 3.5 5.2 0.00 0.00 0.00 48 1012.0
20260507155951 64 103 4.3 8.7 0.00 0.00 0.00 47 1012.1
20260507155451 65 114 4.3 9.6 0.00 0.00 0.00 46 1012.1
20260507154951 65 106 4.3 9.6 0.00 0.00 0.00 46 1012.1
20260507154451 65 102 4.3 8.7 0.00 0.00 0.00 45 1012.1
20260507153951 66 93 5.2 7.8 0.00 0.00 0.00 45 1012.1
20260507153451 67 145 5.2 10.4 0.00 0.00 0.00 43 1012.1
20260507152951 66 122 5.2 8.7 0.00 0.00 0.00 44 1012.1
20260507152451 67 117 4.3 9.6 0.00 0.00 0.00 44 1012.1
20260507151951 67 118 4.3 9.6 0.00 0.00 0.00 42 1012.1
20260507151451 68 102 5.2 11.3 0.00 0.00 0.00 42 1012.2
20260507150951 67 127 6.1 10.4 0.00 0.00 0.00 42 1012.2
20260507150451 67 97 6.1 10.4 0.00 0.00 0.00 43 1012.2
20260507145951 67 129 5.2 10.4 0.00 0.00 0.00 42 1012.2
20260507145451 68 85 5.2 7.8 0.00 0.00 0.00 43 1012.3
20260507144951 67 82 6.1 11.3 0.00 0.00 0.00 43 1012.3
20260507144451 67 118 7.0 11.3 0.00 0.00 0.00 43 1012.4
20260507143951 66 107 7.8 12.2 0.00 0.00 0.00 44 1012.4
20260507143451 67 124 6.1 12.2 0.00 0.00 0.00 43 1012.4
20260507142951 67 85 5.2 10.4 0.00 0.00 0.00 45 1012.6
20260507142451 66 82 6.1 9.6 0.00 0.00 0.00 46 1012.6
20260507141951 66 103 7.0 11.3 0.00 0.00 0.00 45 1012.7
20260507141451 66 116 6.1 12.2 0.00 0.00 0.00 48 1012.6
20260507140951 66 112 5.2 11.3 0.00 0.00 0.00 46 1012.8
20260507140451 65 93 6.1 9.6 0.00 0.00 0.00 50 1012.9
20260507135951 65 143 6.1 11.3 0.00 0.00 0.00 48 1013.0
20260507135451 65 110 5.2 9.6 0.00 0.00 0.00 50 1013.1
20260507134951 63 114 5.2 8.7 0.00 0.00 0.00 55 1013.1
20260507134451 63 178 4.3 8.7 0.00 0.00 0.00 55 1013.2
20260507133951 64 125 4.3 7.8 0.00 0.00 0.00 54 1013.2
20260507133451 65 125 4.3 11.3 0.00 0.00 0.00 51 1013.2
20260507132951 63 126 4.3 10.4 0.00 0.00 0.00 54 1013.2
20260507132451 63 177 5.2 8.7 0.00 0.00 0.00 57 1013.3
20260507131951 62 125 5.2 7.8 0.00 0.00 0.00 60 1013.4
20260507131451 62 135 5.2 9.6 0.00 0.00 0.00 61 1013.5
20260507130951 61 168 6.1 8.7 0.00 0.00 0.00 61 1013.5
20260507130451 61 128 5.2 11.3 0.00 0.00 0.00 60 1013.5
20260507125951 61 128 5.2 13.0 0.00 0.00 0.00 59 1013.5
20260507125451 61 100 5.2 12.2 0.00 0.00 0.00 61 1013.5
20260507124951 61 108 4.3 8.7 0.00 0.00 0.00 60 1013.5
20260507124451 60 144 6.1 8.7 0.00 0.00 0.00 61 1013.5
20260507123951 60 107 6.1 11.3 0.00 0.00 0.00 63 1013.6
20260507123451 60 123 5.2 11.3 0.00 0.00 0.00 61 1013.7
20260507122951 61 158 5.2 8.7 0.00 0.00 0.00 62 1013.6
20260507122451 61 95 5.2 11.3 0.00 0.00 0.00 60 1013.6
20260507121951 60 132 5.2 10.4 0.00 0.00 0.00 62 1013.7
20260507121451 61 162 4.3 9.6 0.00 0.00 0.00 59 1013.8
20260507120951 63 127 5.2 7.8 0.00 0.00 0.00 58 1013.8
20260507120451 61 158 6.1 9.6 0.00 0.00 0.00 60 1013.7
20260507115951 61 131 6.1 11.3 0.00 0.00 0.00 60 1013.7
20260507115451 61 160 6.1 10.4 0.00 0.00 0.00 61 1013.8
20260507114951 61 145 6.1 13.0 0.00 0.00 0.00 59 1013.8
20260507114453 61 108 6.1 11.3 0.00 0.00 0.00 58 1013.8
20260507113951 61 102 6.1 11.3 0.00 0.00 0.00 58 1013.8
20260507113451 61 132 5.2 9.6 0.00 0.00 0.00 59 1013.8
20260507112951 60 145 7.0 11.3 0.00 0.00 0.00 58 1013.9
20260507112451 60 97 7.0 12.2 0.00 0.00 0.00 59 1014.0
20260507111951 61 129 7.0 11.3 0.00 0.00 0.00 57 1014.0
20260507111451 61 120 6.1 12.2 0.00 0.00 0.00 56 1014.0
20260507110951 61 102 6.1 10.4 0.00 0.00 0.00 58 1014.0
20260507110451 61 111 7.0 10.4 0.00 0.00 0.00 61 1014.0
20260507105951 59 174 7.0 11.3 0.00 0.00 0.00 61 1014.1
20260507105451 60 122 6.1 13.9 0.00 0.00 0.00 60 1014.1
20260507104951 61 144 7.0 10.4 0.00 0.00 0.00 57 1014.1
20260507104451 61 128 7.0 11.3 0.00 0.00 0.00 58 1014.1
20260507103951 59 149 6.1 13.0 0.00 0.00 0.00 60 1014.1
20260507103451 60 107 6.1 13.9 0.00 0.00 0.00 58 1014.1
20260507102951 60 96 6.1 10.4 0.00 0.00 0.00 60 1014.2
20260507102451 60 43 5.2 11.3 0.00 0.00 0.00 59 1014.1
20260507101951 59 91 5.2 11.3 0.00 0.00 0.00 60 1014.2
20260507101451 59 117 5.2 9.6 0.00 0.00 0.00 59 1014.2
20260507100951 60 135 6.1 8.7 0.00 0.00 0.00 59 1014.2
20260507100451 59 133 6.1 12.2 0.00 0.00 0.00 58 1014.2
20260507095951 59 108 6.1 10.4 0.00 0.00 0.00 58 1014.1
20260507095451 58 91 5.2 9.6 0.00 0.00 0.00 59 1014.0
20260507094951 59 119 5.2 9.6 0.00 0.00 0.00 57 1014.1
20260507094451 58 108 7.0 11.3 0.00 0.00 0.00 59 1014.1
20260507093951 58 115 7.0 12.2 0.00 0.00 0.00 59 1014.1
20260507093451 58 94 6.1 10.4 0.00 0.00 0.00 59 1014.1
20260507092951 58 126 5.2 8.7 0.00 0.00 0.00 61 1014.0
20260507092451 57 166 6.1 10.4 0.00 0.00 0.00 60 1014.0
20260507091951 57 132 6.1 10.4 0.00 0.00 0.00 60 1014.0
20260507091451 57 114 5.2 11.3 0.00 0.00 0.00 61 1013.9
20260507090952 57 115 5.2 11.3 0.00 0.00 0.00 61 1013.9
20260507090452 57 96 4.3 9.6 0.00 0.00 0.00 61 1013.9
20260507085952 57 155 4.3 10.4 0.00 0.00 0.00 61 1014.0
20260507085452 56 110 5.2 10.4 0.00 0.00 0.00 62 1014.0
20260507084952 56 127 6.1 9.6 0.00 0.00 0.00 62 1014.0
20260507084452 56 101 6.1 10.4 0.00 0.00 0.00 62 1014.0
20260507083952 56 127 5.2 12.2 0.00 0.00 0.00 62 1014.0
20260507083452 56 106 5.2 10.4 0.00 0.00 0.00 63 1014.0
20260507082952 56 123 5.2 10.4 0.00 0.00 0.00 63 1014.0
20260507082452 55 101 4.3 11.3 0.00 0.00 0.00 64 1014.0
20260507081952 55 106 3.5 8.7 0.00 0.00 0.00 65 1014.0
20260507081452 55 127 3.5 9.6 0.00 0.00 0.00 64 1014.0
20260507080952 55 105 4.3 10.4 0.00 0.00 0.00 64 1014.0
20260507080452 55 135 4.3 8.7 0.00 0.00 0.00 64 1013.9
20260507075952 55 127 3.5 8.7 0.00 0.00 0.00 65 1014.0
20260507075452 55 144 3.5 8.7 0.00 0.00 0.00 64 1013.9
20260507074952 55 125 4.3 7.8 0.00 0.00 0.00 65 1013.9
20260507074452 55 124 3.5 7.8 0.00 0.00 0.00 65 1013.9
20260507073952 55 130 3.5 8.7 0.00 0.00 0.00 66 1013.9
20260507073452 55 133 4.3 7.8 0.00 0.00 0.00 66 1013.9
20260507072952 54 116 4.3 9.6 0.00 0.00 0.00 66 1013.8
20260507072452 54 73 3.5 7.8 0.00 0.00 0.00 66 1013.8
20260507071952 54 121 3.5 7.8 0.00 0.00 0.00 66 1013.8
20260507071452 54 108 3.5 7.0 0.00 0.00 0.00 67 1013.8
20260507070952 54 103 3.5 7.8 0.00 0.00 0.00 67 1013.8
20260507070452 54 113 2.6 6.1 0.00 0.00 0.00 68 1013.8
20260507065952 54 111 3.5 6.1 0.00 0.00 0.00 67 1013.8
20260507065452 54 108 2.6 6.1 0.00 0.00 0.00 68 1013.7
20260507064952 54 83 2.6 5.2 0.00 0.00 0.00 68 1013.7
20260507064452 53 114 2.6 5.2 0.00 0.00 0.00 68 1013.7
20260507063952 53 131 1.7 5.2 0.00 0.00 0.00 69 1013.7
20260507063452 53 98 1.7 3.5 0.00 0.00 0.00 69 1013.7
20260507062952 53 112 1.7 5.2 0.00 0.00 0.00 69 1013.6
20260507062452 53 117 2.6 5.2 0.00 0.00 0.00 69 1013.6
20260507061952 53 76 2.6 5.2 0.00 0.00 0.00 69 1013.6
20260507061452 52 108 2.6 5.2 0.00 0.00 0.00 70 1013.6
20260507060952 52 112 2.6 6.1 0.00 0.00 0.00 71 1013.6
20260507060452 52 91 1.7 5.2 0.00 0.00 0.00 72 1013.5
20260507055952 51 104 1.7 3.5 0.00 0.00 0.00 73 1013.4
20260507055452 51 96 1.7 3.5 0.00 0.00 0.00 74 1013.5
20260507054952 51 91 1.7 4.3 0.00 0.00 0.00 75 1013.4
20260507054452 50 95 1.7 5.2 0.00 0.00 0.00 77 1013.5
20260507053952 50 91 0.9 2.6 0.00 0.00 0.00 78 1013.4
20260507053452 50 91 0.9 2.6 0.00 0.00 0.00 79 1013.4
20260507052952 49 84 0.9 2.6 0.00 0.00 0.00 79 1013.4
20260507052452 49 72 0.9 2.6 0.00 0.00 0.00 79 1013.3
20260507051952 49 87 1.7 2.6 0.00 0.00 0.00 80 1013.3
20260507051452 49 98 1.7 5.2 0.00 0.00 0.00 80 1013.3
20260507050952 48 43 1.7 3.5 0.00 0.00 0.00 80 1013.3
20260507050452 48 91 0.9 3.5 0.00 0.00 0.00 80 1013.3
20260507045952 48 79 0.9 3.5 0.00 0.00 0.00 81 1013.3
20260507045452 48 62 0.9 3.5 0.00 0.00 0.00 81 1013.3
20260507044952 48 61 0.9 2.6 0.00 0.00 0.00 81 1013.2
20260507044452 48 62 0.9 2.6 0.00 0.00 0.00 81 1013.2
20260507043952 48 60 1.7 2.6 0.00 0.00 0.00 81 1013.1
20260507043452 48 43 1.7 2.6 0.00 0.00 0.00 81 1013.1
20260507042952 48 62 0.9 3.5 0.00 0.00 0.00 82 1013.1
20260507042452 48 75 0.9 2.6 0.00 0.00 0.00 82 1013.1
20260507041952 48 88 0.9 2.6 0.00 0.00 0.00 82 1013.1
20260507041452 48 75 0.9 2.6 0.00 0.00 0.00 82 1013.1
20260507040952 48 65 0.0 1.7 0.00 0.00 0.00 82 1013.1
20260507040452 48 62 0.9 0.0 0.00 0.00 0.00 82 1013.1
20260507035952 48 61 0.9 1.7 0.00 0.00 0.00 82 1013.1
20260507035452 48 61 0.9 1.7 0.00 0.00 0.00 82 1013.1
20260507034952 49 61 0.9 1.7 0.00 0.00 0.00 82 1013.1
20260507034452 49 61 0.9 2.6 0.00 0.00 0.00 82 1013.1
20260507033952 49 56 0.9 1.7 0.00 0.00 0.00 82 1013.0
20260507033452 49 42 0.9 2.6 0.00 0.00 0.00 82 1013.0
20260507032952 49 42 1.7 2.6 0.00 0.00 0.00 82 1013.0
20260507032452 49 62 0.9 2.6 0.00 0.00 0.00 82 1013.0
20260507031952 50 68 0.9 2.6 0.00 0.00 0.00 82 1013.0
20260507031452 50 62 0.9 2.6 0.00 0.00 0.00 82 1013.0
20260507030952 50 60 1.7 2.6 0.00 0.00 0.00 82 1013.0
20260507030452 50 52 1.7 3.5 0.00 0.00 0.00 82 1013.0
20260507025952 50 45 0.9 2.6 0.00 0.00 0.00 81 1013.0
20260507025452 50 43 0.9 2.6 0.00 0.00 0.00 81 1013.0
20260507024952 50 74 0.9 2.6 0.00 0.00 0.00 81 1013.0
20260507024452 50 94 0.9 2.6 0.00 0.00 0.00 81 1013.0
20260507023952 50 77 1.7 2.6 0.00 0.00 0.00 81 1013.0
20260507023452 50 52 1.7 3.5 0.00 0.00 0.00 81 1012.9
20260507022952 50 66 1.7 3.5 0.00 0.00 0.00 80 1012.8
20260507022452 50 43 1.7 3.5 0.00 0.00 0.00 80 1012.8
20260507021952 50 61 2.6 5.2 0.00 0.00 0.00 80 1012.8
20260507021452 50 41 2.6 4.3 0.00 0.00 0.00 80 1012.8
20260507020952 50 61 1.7 3.5 0.00 0.00 0.00 80 1012.8
20260507020452 50 49 1.7 5.2 0.00 0.00 0.00 79 1012.8
20260507015952 50 51 1.7 3.5 0.00 0.00 0.00 80 1012.8
20260507015452 50 60 1.7 3.5 0.00 0.00 0.00 79 1012.8
20260507014952 49 40 1.7 3.5 0.00 0.00 0.00 79 1012.7
20260507014452 49 68 0.9 3.5 0.00 0.00 0.00 79 1012.7
20260507013952 49 71 0.9 2.6 0.00 0.00 0.00 79 1012.8
20260507013452 49 71 0.9 3.5 0.00 0.00 0.00 79 1012.7
20260507012952 49 72 1.7 2.6 0.00 0.00 0.00 79 1012.7
20260507012452 49 80 1.7 3.5 0.00 0.00 0.00 79 1012.7
20260507011952 49 61 1.7 3.5 0.00 0.00 0.00 78 1012.7
20260507011452 49 62 1.7 3.5 0.00 0.00 0.00 78 1012.7
20260507010952 49 54 1.7 3.5 0.00 0.00 0.00 78 1012.7
20260507010452 49 43 1.7 3.5 0.00 0.00 0.00 78 1012.8
20260507005952 49 48 0.9 2.6 0.00 0.00 0.00 78 1012.8
20260507005452 49 43 0.9 1.7 0.00 0.00 0.00 78 1012.8
20260507004952 49 43 0.9 1.7 0.00 0.00 0.00 77 1012.8
20260507004452 49 44 0.9 2.6 0.00 0.00 0.00 77 1012.9
20260507003952 49 57 0.9 1.7 0.00 0.00 0.00 77 1012.9
20260507003452 49 57 0.9 1.7 0.00 0.00 0.00 76 1012.9
20260507002952 49 57 0.9 2.6 0.00 0.00 0.00 76 1013.0
20260507002452 49 57 0.0 1.7 0.00 0.00 0.00 76 1013.0
20260507001952 49 57 0.0 2.6 0.00 0.00 0.00 75 1013.0
20260507001452 49 57 0.0 1.7 0.00 0.00 0.00 75 1013.1
20260507000952 50 57 0.0 0.9 0.00 0.00 0.00 75 1013.1
20260507000452 50 57 0.9 1.7 0.00 0.00 0.00 75 1013.1
20260506235952 50 57 0.9 1.7 0.00 0.00 0.00 75 1013.1
20260506235452 50 57 0.0 1.7 0.00 0.00 0.00 75 1013.1
20260506234952 50 56 0.0 1.7 0.00 0.00 0.00 74 1013.1
20260506234453 50 49 0.9 1.7 0.00 0.00 0.00 74 1013.1
20260506233952 50 49 0.9 1.7 0.00 0.00 0.00 74 1013.1
20260506233452 51 49 0.9 1.7 0.00 0.00 0.00 74 1013.0
20260506232952 51 49 0.9 4.3 0.00 0.00 0.00 74 1013.0
20260506232452 51 52 0.9 3.5 0.00 0.00 0.00 73 1013.0
20260506231953 51 47 0.9 2.6 0.00 0.00 0.00 73 1013.0
20260506231452 51 35 0.9 2.6 0.00 0.00 0.00 73 1013.0
20260506230953 51 38 0.9 2.6 0.00 0.00 0.00 73 1013.1
20260506230452 52 36 0.9 1.7 0.00 0.00 0.00 73 1013.1
20260506225953 52 36 0.9 2.6 0.00 0.00 0.00 73 1013.1
20260506225453 52 39 0.9 1.7 0.00 0.00 0.00 73 1013.1
20260506224953 52 41 0.9 2.6 0.00 0.00 0.00 73 1013.1
20260506224453 53 41 0.9 2.6 0.00 0.00 0.00 73 1013.1
20260506223953 53 50 0.9 2.6 0.00 0.00 0.00 73 1013.1
20260506223453 53 43 0.9 2.6 0.00 0.00 0.00 73 1013.1
20260506222953 53 33 0.9 2.6 0.00 0.00 0.00 73 1013.0
20260506222453 52 25 1.7 2.6 0.00 0.00 0.00 73 1013.0
20260506221953 52 24 0.9 2.6 0.00 0.00 0.00 72 1013.0
20260506221453 52 45 0.9 2.6 0.00 0.00 0.00 72 1013.0
20260506220953 52 45 0.9 1.7 0.00 0.00 0.00 72 1013.0
20260506220453 52 62 0.0 2.6 0.00 0.00 0.00 72 1012.9
20260506215953 52 62 0.0 0.9 0.00 0.00 0.00 72 1012.9
20260506215453 52 62 0.0 0.9 0.00 0.00 0.00 72 1012.9
20260506214953 52 62 0.9 0.9 0.00 0.00 0.00 72 1012.8
20260506214453 53 62 0.9 2.6 0.00 0.00 0.00 72 1012.8
20260506213953 53 62 0.9 2.6 0.00 0.00 0.00 72 1012.8
20260506213453 53 62 0.9 1.7 0.00 0.00 0.00 72 1012.9
20260506212953 53 62 0.9 1.7 0.00 0.00 0.00 71 1013.0
20260506212453 53 62 0.9 2.6 0.00 0.00 0.00 71 1013.0
20260506211953 53 62 0.9 1.7 0.00 0.00 0.00 72 1013.0
20260506211453 53 62 0.0 1.7 0.00 0.00 0.00 71 1013.0
20260506210953 53 62 0.0 1.7 0.00 0.00 0.00 71 1013.0
20260506210453 53 62 0.0 1.7 0.00 0.00 0.00 71 1012.9
20260506205953 54 62 0.0 1.7 0.00 0.00 0.00 71 1012.8
20260506205453 54 62 0.0 0.9 0.00 0.00 0.00 70 1012.9
20260506204953 54 62 0.0 0.9 0.00 0.00 0.00 70 1012.9
20260506204453 54 62 0.0 1.7 0.00 0.00 0.00 70 1012.8
20260506203953 54 62 0.0 1.7 0.00 0.00 0.00 70 1012.8
20260506203453 54 62 0.0 1.7 0.00 0.00 0.00 70 1012.8
20260506202953 54 62 0.9 1.7 0.00 0.00 0.00 69 1012.8
20260506202453 55 62 1.7 3.5 0.00 0.00 0.00 70 1012.7
20260506201953 55 29 1.7 2.6 0.00 0.00 0.00 69 1012.6
20260506201453 55 37 1.7 2.6 0.00 0.00 0.00 69 1012.5
20260506200953 55 57 1.7 2.6 0.00 0.00 0.00 69 1012.5
20260506200453 55 34 0.9 3.5 0.00 0.00 0.00 69 1012.4
20260506195953 55 49 0.9 2.6 0.00 0.00 0.00 69 1012.4
20260506195455 55 50 1.7 3.5 0.00 0.00 0.00 69 1012.4
20260506194953 55 39 1.7 3.5 0.00 0.00 0.00 68 1012.3
20260506194453 56 41 0.9 2.6 0.00 0.00 0.00 68 1012.3
20260506193953 56 43 0.9 2.6 0.00 0.00 0.00 68 1012.2
20260506193453 56 43 0.9 1.7 0.00 0.00 0.00 68 1012.2
20260506192953 56 48 0.9 1.7 0.00 0.00 0.00 67 1012.1
20260506192453 57 45 0.9 2.6 0.00 0.00 0.00 67 1012.1
20260506191953 57 55 0.9 2.6 0.00 0.00 0.00 66 1012.1
20260506191453 57 39 0.9 2.6 0.00 0.00 0.00 66 1012.1
20260506190953 58 21 1.7 3.5 0.00 0.00 0.00 65 1012.1
20260506190453 58 38 1.7 5.2 0.00 0.00 0.00 64 1012.0
20260506185953 59 62 2.6 2.6 0.00 0.00 0.00 62 1012.0
20260506185453 60 27 2.6 4.3 0.00 0.00 0.00 62 1012.0
20260506184953 60 31 2.6 5.2 0.00 0.00 0.00 62 1012.0
20260506184453 60 31 2.6 5.2 0.00 0.00 0.00 62 1011.9
20260506183953 60 42 1.7 4.3 0.00 0.00 0.00 63 1011.9
20260506183453 60 60 1.7 2.6 0.00 0.00 0.00 62 1011.9
20260506182953 60 13 2.6 4.3 0.00 0.00 0.00 61 1011.9
20260506182453 60 39 2.6 6.1 0.00 0.00 0.00 61 1011.9
20260506181953 61 28 3.5 7.8 0.00 0.00 0.00 60 1011.8
20260506181453 61 56 3.5 4.3 0.00 0.00 0.00 60 1011.9
20260506180953 61 39 2.6 7.0 0.00 0.00 0.00 61 1011.8
20260506180453 61 47 1.7 6.1 0.00 0.00 0.00 61 1011.8
20260506175953 61 50 2.6 4.3 0.00 0.00 0.00 61 1011.8
20260506175453 62 10 2.6 6.1 0.00 0.00 0.00 60 1011.8
20260506174953 62 91 2.6 5.2 0.00 0.00 0.00 61 1011.7
20260506174453 60 33 2.6 5.2 0.00 0.00 0.00 63 1011.7
20260506173953 60 18 2.6 6.1 0.00 0.00 0.00 61 1011.6
20260506173453 61 21 3.5 6.1 0.00 0.00 0.00 61 1011.5